GFSNE_925_spd_162.txt.gz
Wind_Speed
6 6 6 4 2 4 2 3 5 1 1 8 7 5 8 7 8 9 8 6 4 2 1 1 3 4 5 7 6 5 3 5 5 4 4 5 6 7
8 6 5 4 3 2 1 2 2 4 2 6 7 7 6 7 12 8 9 7 6 2 1 1 2 2 3 4 5 5 3 3 3 4 3 3 4 3
12 9 8 6 5 3 1 2 3 5 3 1 1 1 6 10 12 12 12 9 7 4 2 1 1 2 3 3 2 2 2 2 2 3 2 2 2 3
12 11 11 10 5 6 4 4 2 6 6 6 5 3 4 8 13 14 13 10 7 5 3 2 2 2 3 3 2 2 2 2 3 5 6 7 6 6
11 15 14 11 11 8 6 5 5 5 4 4 4 3 4 7 10 12 12 10 8 7 5 4 2 1 1 1 2 2 3 4 5 6 7 7 6 6
16 15 13 15 13 13 11 9 7 7 6 5 5 6 5 4 13 18 13 11 10 7 8 7 5 4 6 4 4 4 5 6 7 7 8 8 7 7
17 15 12 14 13 13 14 14 10 9 8 7 6 5 6 11 12 15 14 15 12 11 10 6 4 5 5 5 5 5 5 5 5 6 7 9 9 6
20 15 15 13 13 14 13 15 13 12 11 9 9 8 9 9 10 14 19 12 5 13 12 9 5 2 1 3 5 4 2 2 4 5 8 7 6 7
25 21 18 16 14 13 14 13 12 11 10 10 11 10 10 12 11 15 18 16 10 12 14 9 9 4 2 3 2 2 2 4 6 8 7 6 5 9
29 26 22 20 18 16 13 13 11 8 7 5 6 6 6 8 10 10 13 11 7 12 11 4 7 3 4 3 4 4 6 6 7 6 5 5 8 9
27 29 27 25 22 20 17 16 13 10 7 5 6 6 6 8 9 13 16 17 5 5 9 4 7 6 5 4 6 7 8 8 8 6 4 5 5 6
32 28 29 28 25 24 23 22 17 13 12 11 12 12 10 7 10 10 12 10 8 4 8 4 10 7 4 5 8 7 8 10 11 8 5 4 3 3
33 32 31 29 27 25 25 25 19 16 16 18 17 14 10 8 8 7 9 11 11 4 11 6 8 7 3 5 8 8 6 6 6 4 2 2 2 2
32 34 31 27 26 23 26 25 20 20 23 23 19 14 10 9 10 10 10 10 6 10 7 8 4 7 8 6 5 8 8 6 4 4 4 5 7 6
21 30 32 28 29 29 28 27 25 25 27 24 19 20 16 15 16 17 17 18 17 14 11 9 9 10 10 9 7 5 3 2 2 3 3 7 11 12
18 20 28 30 31 30 28 30 29 30 27 22 23 22 18 16 13 13 16 17 17 15 12 12 11 14 16 15 14 12 9 5 6 5 6 5 6 5
16 19 22 20 23 23 26 24 25 21 23 23 23 20 16 13 12 14 16 13 13 11 10 10 10 10 11 13 15 11 10 9 6 4 4 5 7 8
18 18 18 18 18 18 16 24 25 21 20 18 15 17 19 16 13 12 18 16 15 12 12 10 8 7 8 7 8 9 8 7 4 4 4 5 6 6
19 19 20 19 19 19 18 15 15 15 17 15 17 17 16 15 18 19 20 19 15 13 10 8 6 3 4 2 5 5 4 4 6 4 3 2 2 1
19 20 18 16 14 15 14 14 16 17 16 16 17 16 17 19 19 19 19 18 16 12 9 6 6 9 8 5 2 3 8 12 13 12 9 7 6 5
10 11 14 15 13 11 12 13 14 13 16 17 16 15 18 19 17 16 15 13 11 12 12 10 6 4 3 1 4 6 11 10 13 17 12 12 12 9
10 9 10 11 12 15 16 17 16 16 16 17 16 18 19 16 14 12 14 13 12 11 14 8 7 7 4 4 6 9 13 12 11 16 17 15 11 5
9 8 15 14 16 17 16 17 18 18 18 17 18 16 15 13 13 13 12 12 10 8 10 8 9 9 5 3 4 6 12 13 10 14 17 20 20 18

GFSNE_925_spd_165.txt.gz
Wind_Speed
9 8 8 7 7 7 9 6 4 3 3 5 4 11 12 12 9 7 6 4 3 3 3 3 4 5 5 5 4 2 2 8 8 5 4 4 4 5
10 11 9 6 7 4 4 8 5 4 2 6 5 8 6 6 6 6 5 5 5 4 3 2 2 3 3 3 3 3 3 3 2 2 1 1 2 4
13 14 13 10 7 7 4 4 7 6 3 3 5 3 6 7 6 9 7 6 6 6 3 1 1 2 2 2 1 2 2 3 3 3 2 0 3 5
16 13 14 11 10 8 11 8 8 9 8 7 7 4 5 6 11 10 9 8 7 7 5 3 1 1 2 2 1 1 1 2 2 4 6 7 6 7
18 17 19 14 12 11 9 9 8 7 8 8 9 6 4 7 10 11 10 8 6 6 6 5 3 1 1 1 2 2 2 3 3 4 6 6 6 6
21 20 16 16 16 16 16 16 13 12 11 10 8 8 7 6 12 15 10 9 7 6 6 4 3 4 4 4 5 5 4 5 6 6 6 6 6 6
21 20 19 19 19 17 16 19 16 15 13 11 10 8 8 8 13 13 12 11 9 7 8 6 5 4 5 5 5 6 5 5 4 5 6 8 7 6
24 23 20 20 19 17 17 18 21 19 16 14 13 10 12 10 11 15 15 11 5 11 11 7 4 2 1 3 5 4 3 4 5 6 7 6 7 8
27 25 25 22 20 18 17 16 16 17 17 15 14 13 11 12 12 14 17 15 7 8 16 8 7 3 2 3 4 4 5 6 8 8 6 6 6 10
28 28 28 26 25 22 18 15 14 14 14 12 12 11 11 11 13 13 15 12 6 7 12 4 8 4 5 4 3 6 8 9 9 8 6 7 8 9
32 32 30 29 30 27 22 18 16 15 13 11 11 11 12 13 14 13 15 15 4 5 13 3 7 6 6 5 4 7 9 11 10 9 7 8 7 7
37 36 35 34 29 31 30 26 23 22 19 16 13 11 11 12 12 13 16 18 10 5 12 9 12 9 5 6 8 8 9 11 10 8 6 5 5 5
33 38 37 36 36 35 36 32 29 25 22 19 17 15 13 14 16 15 13 13 12 4 13 10 12 11 4 7 9 9 8 9 8 6 4 2 1 2
30 33 34 35 36 36 36 32 27 23 26 24 23 21 16 14 12 11 11 13 8 6 17 11 8 12 9 7 7 13 11 8 6 4 3 4 6 7
24 27 31 30 30 32 34 27 23 30 33 31 30 27 21 18 17 17 17 17 15 13 11 9 6 12 13 8 9 10 9 8 6 3 3 6 8 10
18 18 22 21 25 33 30 33 36 41 41 35 25 24 27 26 23 22 21 20 18 14 11 8 7 9 12 12 13 14 12 6 6 3 2 0 1 2
15 13 13 14 15 15 16 19 14 21 18 16 27 29 22 19 20 21 22 17 15 13 13 10 9 9 11 12 15 12 12 10 6 5 4 2 1 3
6 7 9 10 12 14 15 16 22 21 25 27 26 21 17 16 15 17 17 18 17 13 13 10 11 12 12 8 10 15 13 11 7 4 2 1 2 2
12 14 15 16 16 19 19 24 26 25 22 27 27 20 19 20 20 20 19 18 15 13 12 8 8 11 4 2 6 9 8 8 8 9 7 5 4 3
14 16 17 17 18 18 18 20 20 18 18 17 18 19 20 17 16 17 23 22 19 15 10 6 5 10 11 9 5 7 10 12 13 15 14 11 10 10
7 10 10 12 12 12 12 16 16 15 14 16 18 21 21 22 21 21 21 19 19 15 13 10 7 8 9 7 2 2 4 6 9 16 15 14 13 12
6 6 7 8 8 10 13 15 17 16 16 18 20 19 19 19 18 19 19 19 17 17 14 11 9 8 7 7 6 5 6 4 6 9 13 17 13 6
4 3 5 6 7 9 10 12 13 16 18 16 17 17 20 19 16 16 18 17 15 12 13 12 11 13 11 8 7 5 5 7 6 7 10 13 18 21

GFSNE_925_spd_168.txt.gz
Wind_Speed
9 8 7 7 10 10 11 9 3 1 2 3 4 7 8 10 12 6 6 5 3 3 2 3 4 5 5 4 2 1 0 5 6 6 2 1 0 1
9 7 9 8 8 9 9 11 9 5 2 5 4 5 5 4 6 7 7 5 4 3 2 2 2 2 2 3 2 1 1 1 1 0 1 1 1 2
12 11 12 11 11 10 10 7 11 9 5 3 5 3 5 7 8 8 7 5 3 4 3 2 1 2 2 2 2 2 2 2 2 2 1 4 4 5
16 14 15 12 12 11 11 13 12 11 10 8 6 4 5 7 8 8 6 4 3 4 4 2 1 1 1 1 2 2 3 4 5 6 7 7 8 9
19 18 17 16 17 15 13 11 11 9 10 9 6 7 5 6 10 10 7 5 4 4 5 4 2 1 1 1 2 3 3 5 5 6 7 7 8 8
19 19 18 19 18 18 15 16 15 14 12 11 9 8 6 5 10 11 8 7 6 4 3 3 3 3 5 4 4 5 5 6 7 7 8 9 8 8
19 20 20 19 19 19 18 19 18 18 15 14 11 7 8 8 12 12 11 10 8 7 7 6 6 5 5 5 6 6 6 5 5 7 8 8 7 7
24 23 22 21 20 18 17 18 19 20 20 17 15 13 14 13 14 15 14 10 5 12 12 11 8 6 4 4 7 7 8 8 8 8 7 7 8 10
24 25 24 23 21 20 19 19 18 18 22 22 22 20 17 19 18 20 20 15 8 9 18 11 10 6 5 6 6 6 8 9 10 8 8 7 10 11
27 27 27 26 24 24 23 22 20 18 19 22 22 19 18 15 19 19 18 16 10 10 16 6 12 7 8 7 6 8 10 12 10 8 7 10 10 10
28 29 30 30 28 26 26 26 24 22 20 18 18 17 16 15 17 17 18 18 5 9 18 8 11 9 9 7 7 10 10 10 9 8 9 9 9 9
28 29 31 34 33 31 30 31 32 31 26 23 22 20 17 16 17 18 19 20 9 6 17 11 15 10 5 7 9 10 10 11 10 8 7 7 7 7
24 29 34 35 35 37 37 37 38 37 31 27 24 22 20 20 20 20 18 20 17 5 17 18 15 13 5 7 10 12 13 13 11 9 7 5 4 5
22 25 26 26 27 30 32 37 39 39 32 30 27 24 22 21 20 17 16 15 10 6 15 18 10 15 8 7 7 14 14 13 11 9 7 5 5 7
17 20 23 26 26 24 28 31 38 38 33 33 28 24 23 21 22 20 16 13 10 11 18 12 5 17 13 8 9 13 13 13 11 8 7 5 6 8
18 18 23 24 23 24 27 27 37 35 34 37 30 25 24 18 19 21 23 21 18 13 9 10 10 13 15 11 15 14 12 6 12 7 5 3 2 2
15 17 17 16 17 17 19 16 21 17 17 25 25 33 29 26 15 19 19 18 16 14 10 9 9 8 10 15 13 15 13 12 10 7 5 4 2 1
6 7 6 3 2 2 4 8 11 18 25 27 31 32 31 33 24 19 16 17 19 16 14 12 13 14 13 9 11 17 13 12 12 9 6 4 3 3
7 7 7 7 9 9 12 15 18 21 25 29 30 27 24 22 27 22 16 15 13 14 12 11 10 8 3 2 5 12 14 13 11 9 8 7 6 5
11 11 11 11 12 15 17 21 23 25 28 27 26 22 21 20 20 22 23 20 16 13 9 7 7 12 11 9 6 11 12 10 12 12 12 13 13 12
7 8 9 10 11 12 13 15 17 17 18 20 20 19 18 17 18 21 23 19 19 15 11 8 8 10 13 11 5 5 7 9 12 13 12 13 9 11
1 3 3 4 5 7 9 12 14 16 17 20 22 21 20 22 22 20 24 23 21 17 13 10 9 9 9 6 4 3 5 6 7 9 10 14 7 6
4 2 2 2 2 3 7 10 11 13 14 16 18 19 21 21 20 19 20 20 19 14 11 11 10 9 7 5 5 4 7 8 9 7 7 8 9 14

GFSNE_925_spd_171.txt.gz
Wind_Speed
7 7 8 6 5 5 5 6 4 3 3 1 3 5 6 5 7 5 4 5 4 2 2 2 2 3 3 4 3 2 2 4 6 6 4 4 3 2
8 9 7 7 5 5 6 5 6 5 3 2 2 3 4 4 6 6 7 5 6 4 3 1 2 2 2 2 2 2 2 2 3 3 2 2 1 2
10 10 10 10 9 8 7 7 6 7 5 4 3 3 4 8 8 8 6 6 5 6 5 4 2 1 1 1 2 3 2 2 3 4 4 4 5 5
11 11 11 9 10 10 8 9 9 8 8 9 6 6 4 7 8 7 7 6 6 6 7 5 3 4 4 3 3 3 4 5 5 5 6 7 8 12
13 13 14 11 10 11 11 12 13 10 10 8 5 7 6 11 11 10 9 8 6 5 4 4 4 4 3 3 3 3 5 5 6 7 8 8 9 9
13 13 13 13 13 12 13 13 12 12 10 9 7 7 6 8 12 14 11 10 8 6 5 5 5 5 4 4 4 4 5 6 7 7 7 7 8 8
13 13 14 15 15 14 12 13 12 14 15 13 13 11 10 8 17 15 14 13 9 9 7 6 5 5 6 6 6 7 7 8 7 7 8 7 8 7
15 17 16 18 19 18 17 17 17 15 16 15 15 16 15 12 11 16 15 9 5 13 10 9 8 7 7 6 7 8 7 8 9 9 8 8 8 11
16 16 16 16 17 16 17 19 18 19 20 16 18 18 16 17 14 14 18 13 9 8 12 10 11 10 8 7 9 9 10 9 9 8 8 9 11 12
18 18 18 17 17 16 16 16 17 16 18 18 18 19 17 14 16 15 14 14 11 10 14 6 11 10 11 10 10 9 11 11 10 9 8 11 12 12
19 20 19 19 20 22 20 19 20 20 20 22 21 22 22 21 16 13 16 14 5 8 18 9 14 11 11 10 10 12 13 14 12 9 10 10 11 10
19 19 23 24 23 24 25 23 22 24 21 21 25 25 23 20 19 18 13 15 9 6 17 13 17 11 6 7 11 13 15 14 12 12 12 12 11 7
14 14 14 17 19 20 22 26 27 25 24 29 25 17 15 15 17 19 16 16 16 9 13 16 14 13 5 8 10 12 12 13 11 11 10 10 10 9
17 15 13 14 16 18 18 20 20 26 26 23 21 23 23 25 22 21 19 19 17 14 16 20 9 17 10 9 9 12 12 12 11 10 9 9 8 8
15 17 16 16 16 17 17 19 17 20 25 25 25 30 38 35 30 29 29 23 19 17 23 24 10 17 11 11 12 14 15 11 11 9 8 7 6 6
12 15 15 15 16 16 14 17 16 17 21 26 23 22 25 27 25 24 28 26 24 19 20 14 11 15 12 9 14 17 13 10 13 9 8 6 4 4
5 5 6 7 8 9 8 9 9 7 14 14 11 14 16 21 23 21 23 25 26 18 13 9 7 11 11 10 9 13 14 10 11 10 8 7 6 4
10 12 12 11 10 8 5 3 2 8 11 17 23 26 25 26 25 25 22 23 23 14 12 10 11 12 9 5 7 13 12 10 9 9 7 7 7 6
16 14 13 12 12 11 10 9 12 15 21 24 27 28 28 27 24 23 21 17 19 13 8 6 4 4 6 5 4 11 10 12 12 10 9 8 6 8
12 11 10 10 11 14 15 17 20 20 20 22 23 25 25 24 21 18 15 15 11 9 8 6 9 7 7 7 6 10 13 11 11 11 11 11 12 13
5 6 6 6 8 11 15 16 18 20 22 24 23 22 23 22 20 17 14 14 15 12 10 7 6 12 10 9 6 8 10 14 13 11 10 11 12 12
1 3 3 3 4 8 11 12 16 19 20 21 21 21 18 15 14 13 14 15 16 13 11 9 10 10 8 8 7 8 8 7 10 12 14 13 10 12
4 4 3 4 5 6 8 10 11 11 11 12 13 14 13 12 10 11 14 17 17 15 13 11 9 8 8 7 5 5 5 5 5 7 8 7 8 10